Hourly Weather Goiana

Today, 7 May, Friday

Time Temperature Precipitation Wind Pressure Humidity
00:00 +26°C° 0.2 mm 1 mps 759 mmHg 89%
01:00 +25°C° 0.2 mm 1 mps 759 mmHg 90%
02:00 +25°C° 0 mm 1 mps 759 mmHg 90%
03:00 +25°C° 0 mm 1 mps 758 mmHg 90%
04:00 +25°C° 0 mm 1 mps 758 mmHg 91%
05:00 +25°C° 0 mm 1 mps 758 mmHg 90%
06:00 +25°C° 0 mm 1 mps 759 mmHg 90%
07:00 +25°C° 0 mm 1 mps 759 mmHg 90%
08:00 +27°C° 0 mm 2 mps 759 mmHg 81%
09:00 +29°C° 0 mm 2 mps 760 mmHg 73%
10:00 +31°C° 0 mm 3 mps 760 mmHg 65%
11:00 +31°C° 0 mm 3 mps 760 mmHg 61%
12:00 +33°C° 0 mm 3 mps 759 mmHg 57%
13:00 +34°C° 0 mm 4 mps 759 mmHg 52%
14:00 +33°C° 0 mm 4 mps 758 mmHg 55%
15:00 +33°C° 0 mm 4 mps 758 mmHg 57%
16:00 +32°C° 0 mm 4 mps 758 mmHg 59%
17:00 +30°C° 0 mm 3 mps 758 mmHg 68%
18:00 +28°C° 0 mm 3 mps 758 mmHg 76%
19:00 +27°C° 0 mm 2 mps 759 mmHg 84%
20:00 +26°C° 0 mm 2 mps 759 mmHg 86%
21:00 +26°C° 0 mm 2 mps 760 mmHg 87%
22:00 +26°C° 0 mm 1 mps 760 mmHg 88%
23:00 +26°C° 0 mm 1 mps 760 mmHg 89%

Tomorrow, 8 May, Saturday

Time Temperature Precipitation Wind Pressure Humidity
00:00 +26°C° 0 mm 1 mps 760 mmHg 90%
01:00 +26°C° 0 mm 1 mps 760 mmHg 91%
02:00 +25°C° 0 mm 1 mps 759 mmHg 91%
03:00 +25°C° 0 mm 1 mps 759 mmHg 90%
04:00 +25°C° 0 mm 1 mps 759 mmHg 90%
05:00 +26°C° 0.1 mm 1 mps 759 mmHg 90%
06:00 +26°C° 0.1 mm 1 mps 760 mmHg 90%
07:00 +26°C° 0.1 mm 1 mps 760 mmHg 89%
08:00 +27°C° 0.5 mm 2 mps 760 mmHg 83%
09:00 +29°C° 0.5 mm 2 mps 760 mmHg 77%
10:00 +30°C° 0.5 mm 3 mps 761 mmHg 71%
11:00 +31°C° 0.6 mm 3 mps 760 mmHg 69%
12:00 +32°C° 0.6 mm 4 mps 760 mmHg 68%
13:00 +32°C° 0.6 mm 4 mps 759 mmHg 67%
14:00 +32°C° 0.2 mm 4 mps 759 mmHg 66%
15:00 +32°C° 0.2 mm 4 mps 758 mmHg 64%
16:00 +32°C° 0.2 mm 4 mps 758 mmHg 63%
17:00 +30°C° 0 mm 3 mps 758 mmHg 70%
18:00 +28°C° 0 mm 3 mps 759 mmHg 78%
19:00 +27°C° 0 mm 2 mps 759 mmHg 86%
20:00 +26°C° 0.2 mm 2 mps 759 mmHg 87%
21:00 +26°C° 0.2 mm 2 mps 759 mmHg 89%
22:00 +26°C° 0.2 mm 2 mps 760 mmHg 91%
23:00 +26°C° 0 mm 2 mps 760 mmHg 91%

Day after tomorrow, 9 May, Sunday

Time Temperature Precipitation Wind Pressure Humidity
00:00 +25°C° 0 mm 2 mps 759 mmHg 92%
01:00 +25°C° 0 mm 2 mps 759 mmHg 92%
02:00 +25°C° 0 mm 2 mps 759 mmHg 93%
03:00 +25°C° 0 mm 2 mps 759 mmHg 93%
04:00 +24°C° 0 mm 2 mps 758 mmHg 94%
05:00 +25°C° 0 mm 2 mps 759 mmHg 93%
06:00 +25°C° 0 mm 2 mps 759 mmHg 92%
07:00 +25°C° 0 mm 2 mps 759 mmHg 91%
08:00 +27°C° 0 mm 2 mps 759 mmHg 83%
09:00 +29°C° 0 mm 3 mps 759 mmHg 75%
10:00 +32°C° 0 mm 4 mps 759 mmHg 67%
11:00 +32°C° 0 mm 4 mps 759 mmHg 63%
12:00 +33°C° 0 mm 4 mps 758 mmHg 59%
13:00 +34°C° 0 mm 5 mps 758 mmHg 55%
14:00 +33°C° 0.2 mm 5 mps 758 mmHg 57%
15:00 +33°C° 0.2 mm 5 mps 757 mmHg 60%
16:00 +32°C° 0.2 mm 5 mps 757 mmHg 63%
17:00 +30°C° 0.3 mm 5 mps 758 mmHg 69%
18:00 +28°C° 0.3 mm 4 mps 758 mmHg 76%
19:00 +27°C° 0.3 mm 3 mps 758 mmHg 83%
20:00 +27°C° 0 mm 3 mps 759 mmHg 85%
21:00 +26°C° 0 mm 3 mps 759 mmHg 88%
22:00 +26°C° 0 mm 2 mps 759 mmHg 90%
23:00 +26°C° 0 mm 2 mps 759 mmHg 91%

10 May, Monday

Time Temperature Precipitation Wind Pressure Humidity
00:00 +25°C° 0 mm 2 mps 759 mmHg 91%
01:00 +25°C° 0 mm 2 mps 759 mmHg 91%
02:00 +25°C° 0.2 mm 2 mps 759 mmHg 92%
03:00 +25°C° 0.2 mm 2 mps 758 mmHg 93%
04:00 +25°C° 0.2 mm 2 mps 758 mmHg 94%
05:00 +25°C° 0.3 mm 2 mps 758 mmHg 94%
06:00 +25°C° 0.3 mm 2 mps 759 mmHg 94%
07:00 +25°C° 0.3 mm 3 mps 759 mmHg 94%
08:00 +27°C° 0.1 mm 3 mps 759 mmHg 84%
09:00 +29°C° 0.1 mm 4 mps 759 mmHg 74%
10:00 +32°C° 0.1 mm 5 mps 760 mmHg 64%
11:00 +32°C° 0 mm 5 mps 759 mmHg 60%
12:00 +33°C° 0 mm 5 mps 758 mmHg 56%
13:00 +34°C° 0 mm 6 mps 758 mmHg 51%
14:00 +33°C° 0 mm 6 mps 757 mmHg 55%
15:00 +32°C° 0 mm 5 mps 757 mmHg 58%
16:00 +32°C° 0 mm 5 mps 757 mmHg 61%
17:00 +29°C° 0 mm 4 mps 757 mmHg 68%
18:00 +28°C° 0 mm 3 mps 758 mmHg 75%
19:00 +27°C° 0 mm 2 mps 758 mmHg 82%
20:00 +26°C° 0.1 mm 2 mps 758 mmHg 84%
21:00 +26°C° 0.1 mm 2 mps 759 mmHg 86%
22:00 +26°C° 0.1 mm 2 mps 759 mmHg 89%
23:00 +25°C° 0.1 mm 2 mps 759 mmHg 89%

11 May, Tuesday

Time Temperature Precipitation Wind Pressure Humidity
00:00 +25°C° 0.1 mm 2 mps 759 mmHg 90%
01:00 +25°C° 0.1 mm 2 mps 758 mmHg 90%
02:00 +25°C° 0.1 mm 2 mps 758 mmHg 91%
03:00 +25°C° 0.1 mm 2 mps 758 mmHg 91%
04:00 +25°C° 0.1 mm 2 mps 757 mmHg 92%
05:00 +25°C° 0.2 mm 2 mps 758 mmHg 92%
06:00 +25°C° 0.2 mm 2 mps 758 mmHg 91%
07:00 +25°C° 0.2 mm 2 mps 758 mmHg 91%
08:00 +27°C° 0.3 mm 3 mps 758 mmHg 84%
09:00 +28°C° 0.3 mm 4 mps 759 mmHg 77%
10:00 +30°C° 0.3 mm 4 mps 759 mmHg 69%
11:00 +32°C° 0.1 mm 4 mps 758 mmHg 65%
12:00 +33°C° 0.1 mm 5 mps 758 mmHg 60%
13:00 +34°C° 0.1 mm 5 mps 757 mmHg 56%
14:00 +33°C° 0 mm 5 mps 757 mmHg 58%
15:00 +32°C° 0 mm 5 mps 757 mmHg 61%
16:00 +32°C° 0 mm 5 mps 756 mmHg 63%
17:00 +29°C° 0 mm 4 mps 757 mmHg 70%
18:00 +28°C° 0 mm 3 mps 757 mmHg 76%
19:00 +27°C° 0 mm 3 mps 758 mmHg 83%
20:00 +26°C° 0.3 mm 2 mps 758 mmHg 86%
21:00 +26°C° 0.3 mm 2 mps 759 mmHg 88%
22:00 +25°C° 0.3 mm 2 mps 759 mmHg 91%
23:00 +25°C° 0.6 mm 2 mps 759 mmHg 92%

12 May, Wednesday

Time Temperature Precipitation Wind Pressure Humidity
00:00 +25°C° 0.6 mm 2 mps 759 mmHg 92%
01:00 +25°C° 0.6 mm 2 mps 758 mmHg 92%
02:00 +25°C° 0.2 mm 2 mps 758 mmHg 92%
03:00 +25°C° 0.2 mm 2 mps 758 mmHg 92%
04:00 +25°C° 0.2 mm 2 mps 757 mmHg 92%
05:00 +25°C° 0.4 mm 2 mps 758 mmHg 92%
06:00 +25°C° 0.4 mm 2 mps 758 mmHg 92%
07:00 +25°C° 0.4 mm 2 mps 758 mmHg 91%
08:00 +27°C° 0.4 mm 2 mps 759 mmHg 85%
09:00 +28°C° 0.4 mm 3 mps 759 mmHg 78%
10:00 +30°C° 0.4 mm 4 mps 759 mmHg 72%
11:00 +30°C° 0.7 mm 4 mps 759 mmHg 72%
12:00 +30°C° 0.7 mm 4 mps 758 mmHg 73%
13:00 +30°C° 0.7 mm 4 mps 758 mmHg 73%
14:00 +30°C° 0.4 mm 4 mps 758 mmHg 72%
15:00 +30°C° 0.4 mm 4 mps 757 mmHg 71%
16:00 +30°C° 0.4 mm 4 mps 757 mmHg 70%
17:00 +29°C° 0.1 mm 3 mps 757 mmHg 76%
18:00 +28°C° 0.1 mm 3 mps 758 mmHg 82%
19:00 +26°C° 0.1 mm 2 mps 758 mmHg 87%
20:00 +26°C° 0.1 mm 2 mps 758 mmHg 88%
21:00 +26°C° 0.1 mm 2 mps 759 mmHg 90%
22:00 +25°C° 0.1 mm 2 mps 759 mmHg 91%
23:00 +25°C° 0.2 mm 2 mps 759 mmHg 92%
Show more